Dr. Bill's Marine Weather

Coastal Marine Forecast

       Alabama   Florida   Louisiana   Mississippi

Printer Friendly AL  FL  LA  MS

Data Buoys:   Western Gulf of Mexico    Eastern Gulf of Mexico
**********************************************************************
  Alabama
1200 PM CDT WED APR 23 2014

ALZ051>064-231800-
SOUTHWEST ALABAMA
  
CITY           SKY/WX    TMP DP  RH WIND       PRES   REMARKS
MOBILE         PTSUNNY   78  61  55 CALM      29.97F                  
BROOKLEY FIELD MOSUNNY   78  63  59 E5        29.98F                  
EVERGREEN      MOSUNNY   81  58  45 N7        29.98F                  
**********************************************************************
  Florida
100 PM EDT WED APR 23 2014

FLZ001>010-012>015-112-114-115-231800-
PANHANDLE FLORIDA
  
CITY           SKY/WX    TMP DP  RH WIND       PRES   REMARKS
PENSACOLA      SUNNY     80  60  50 N8        29.95F                  
PENSACOLA NAS  MOSUNNY   76  64  66 S12       29.96S                  
MILTON NAS     PTSUNNY   78  60  53 N6        29.96F                  
CRESTVIEW      PTSUNNY   78  60  53 NW3       29.97F                  
DUKE FIELD     MOSUNNY   78  60  52 VRB1      29.96F                  
VALPARAISO     MOSUNNY   79  64  60 S6        29.95F                  
MARY ESTHER    MOSUNNY   75  62  64 S9        29.95S                  
PANAMA CITY    FAIR      78  62  57 CALM      29.94F                  
TYNDALL AFB    SUNNY     75  72  89 SW8       29.95F                  
APALACHICOLA   CLOUDY    76  66  71 S8        29.96F                  

STATION/POSITION SKY/WX   TEMP    WIND        PRES    WAVE   SWELL
                          AIR SEA DIR/SP/G            HT/PER HT/PER
                          (F)     (DEG/KT/KT) (MB)    (FT/S) (FT/S)
30.1N   87.6W              69 70  120/  2/  2 1015.2F   1
29.2N   88.2W              68 70   20/  6/  6 1015.6S
28.8N   86.0W              69 70  340/  4/  6 1015.5    2/ 4
PANAMA CITY BEAC           68 66  250/  6/  7 1014.2F
CAPE SAN BLAS    NOT AVBL
TOWER C                    68     260/  5/  6 1014.6F
28.5N   84.5W              69 71  330/  2/  4 1015.0F   1/ 4

**********************************************************************
  Louisiana
1200 PM CDT WED APR 23 2014

LAZ040-048-061>063-065-066-069-231800-
SOUTHEAST LOUISIANA
  
CITY           SKY/WX    TMP DP  RH WIND       PRES   REMARKS
N.O. AUDUBON     N/A     82  65  56 MISG        N/A                   
N.O. INTL ARPT MOSUNNY   79  62  56 VRB6      29.99F                  
N.O. LAKEFRONT SUNNY     73  64  73 NW7       29.99F                  
N.O. DOWNTOWN* PTSUNNY   79  57  47 E5        29.99F                  
SLIDELL        MOSUNNY   79  60  52 NE3       29.97F                  
BATON ROUGE    SUNNY     80  55  42 E5        29.99F                  
BOOTHVILLE     SUNNY     76  64  66 VRB3      30.00F                  
BELLE CHASSE   PTSUNNY   78  60  53 CALM      29.98F                  
BOGALUSA*        N/A     81  56  42 N6        29.99F                  
GALLIANO*      MOSUNNY   80  61  52 N5        29.99F                  
NEW ROADS*     PTSUNNY   78  57  47 CALM      30.00S                  
GONZALES*      FAIR      79  58  48 CALM      29.98F                  
HAMMOND*       SUNNY     82  54  36 CALM      30.00F                  
HOUMA*         SUNNY     79  57  47 N6        30.00S                  
PORT FOURCHON* PTSUNNY   75  66  73 S5        30.01F                  

**********************************************************************
  Mississippi
1200 PM CDT WED APR 23 2014

MSZ080>082-231800-
COASTAL MISSISSIPPI
  
CITY           SKY/WX    TMP DP  RH WIND       PRES   REMARKS
BAY ST LOUIS   MOSUNNY   79  57  47 CALM      29.98F                  
BILOXI         PTSUNNY   78  67  67 S10       29.97F                  
PASCAGOULA     MOSUNNY   79  62  56 VRB3      29.96F                  
GULFPORT       PTSUNNY   80  64  58 S10       29.97F                  
About Us | Coastal Marine Forecast | Offshore Marine Forecast | Marine Weather Discussion
Gulf Coast Tides | Exxon Mobil Platform 112B | Hourly Weather Observations | Weather Radar
Severe Weather Potential | Sea Surface Temperatures | Solar/Lunar Data | Hurricane Advisories | Home
     
USA Logo Dr. Bill's Marine Weather
Last date changed: February 4, 2005 12:04 PM
www.gulfmarineweather.com/hourlyweatherobservations.shtml
Contact Us